Weather History for Driggs, ID

Change the Weather History Date:

Tuesday, June 18, 2013

  Actual Average (KRXE) Record (KRXE)
Temperature  
Mean Temperature 64 °F 60 °F  
Max Temperature 84 °F 75 °F 87 °F (2003)
Min Temperature 43 °F 46 °F 31 °F (2010)
Degree Days  
Heating Degree Days 2 5  
Month to date heating degree days 124  
Since 1 June heating degree days 124  
Since 1 July heating degree days 8082  
Cooling Degree Days 0 1  
Month to date cooling degree days 6  
Year to date cooling degree days 10  
Since 1 June cooling degree days 6  
Growing Degree Days 14 (Base 50)    
Moisture  
Dew Point 33 °F    
Average Humidity 33    
Maximum Humidity 65    
Minimum Humidity 9    
Precipitation  
Precipitation 0.00 in 0.05 in 0.25 in (1984)
Month to date precipitation 1.03  
Year to date precipitation 6.90  
Sea Level Pressure  
Sea Level Pressure 29.77 in    
Wind  
Wind Speed 6 mph (SE)    
Max Wind Speed 18 mph    
Max Gust Speed 38 mph    
Visibility 10 miles    
Events Thunderstorm    
T = Trace of Precipitation, MM = Missing Value Source: NWS Daily Summary

Daily Weather History Graph

Daily Weather History Graph

Search for Another Location

Airport:

Trip Planner

Search our weather history database for the weather conditions in past years. The results will help you decide how hot, cold, wet, or windy it might be!

Date:

Astronomy

Jun. 18, 2013 Rise Set
Actual Time 5:42 AM MDT 9:09 PM MDT
Civil Twilight 5:05 AM MDT 9:45 PM MDT
Nautical Twilight 4:18 AM MDT 10:32 PM MDT
Astronomical Twilight 3:18 AM MDT 11:32 PM MDT
Moon 3:50 PM MDT (6/18) 2:01 AM MDT (6/18)
Length of Visible Light 16h 39m
Length of Day
15h 27m
Waxing Gibbous, 71% of the Moon is Illuminated
Jun 18
Waxing Gibbous
Jun 23
Full
Jun 29
Last Quarter
Jul 8
New
Jul 15
First Quarter

Hourly Weather History & Observations

Time (MDT) Temp. Windchill Dew Point Humidity Pressure Visibility Wind Dir Wind Speed Gust Speed Precip Events Conditions
12:56 AM 46.9 °F - 32.9 °F 58% 29.86 in 10.0 mi Calm Calm - N/A   Clear
1:56 AM 48.9 °F - 32.9 °F 54% 29.83 in 10.0 mi Calm Calm - N/A   Clear
2:56 AM 46.9 °F - 34.0 °F 61% 29.83 in 10.0 mi Calm Calm - N/A   Clear
3:56 AM 43.0 °F 41.3 °F 32.0 °F 65% 29.82 in 10.0 mi East 3.5 mph - N/A   Clear
4:56 AM 45.0 °F 43.5 °F 34.0 °F 65% 29.82 in 10.0 mi SE 3.5 mph - N/A   Clear
5:56 AM 43.9 °F 41.3 °F 32.9 °F 65% 29.84 in 10.0 mi ENE 4.6 mph - N/A   Clear
6:56 AM 54.0 °F - 37.9 °F 55% 29.80 in 10.0 mi East 4.6 mph - N/A   Clear
7:56 AM 61.9 °F - 34.9 °F 36% 29.78 in 10.0 mi Calm Calm - N/A   Clear
8:56 AM 68.9 °F - 41.0 °F 36% 29.78 in 10.0 mi West 3.5 mph - N/A   Clear
9:56 AM 75.9 °F - 36.9 °F 24% 29.78 in 10.0 mi SSE 4.6 mph - N/A   Clear
10:56 AM 79.0 °F - 32.0 °F 18% 29.75 in 10.0 mi South 9.2 mph - N/A   Clear
11:56 AM 81.0 °F - 34.0 °F 18% 29.74 in 10.0 mi South 13.8 mph 17.3 mph N/A   Clear
12:56 PM 81.0 °F - 29.1 °F 15% 29.74 in 10.0 mi South 9.2 mph 16.1 mph N/A   Clear
1:56 PM 82.9 °F - 19.0 °F 9% 29.70 in 10.0 mi South 13.8 mph 18.4 mph N/A   Partly Cloudy
2:03 PM 82.4 °F - 24.8 °F 12% 29.96 in 10.0 mi South 6.9 mph - N/A   Partly Cloudy
2:26 PM 84.2 °F - 21.2 °F 10% 29.96 in 10.0 mi SSW 9.2 mph - N/A Thunderstorm Scattered Clouds
2:43 PM 82.4 °F - 21.2 °F 10% 29.95 in 10.0 mi WSW 17.3 mph 26.5 mph N/A   Mostly Cloudy
2:56 PM 81.0 °F - 18.1 °F 10% 29.70 in 10.0 mi West 12.7 mph 29.9 mph N/A   Scattered Clouds
3:33 PM 75.2 °F - 26.6 °F 17% 29.95 in 10.0 mi NE 18.4 mph 38.0 mph N/A   Mostly Cloudy
3:48 PM 73.4 °F - 35.6 °F 25% 29.97 in 10.0 mi SSE 17.3 mph 28.8 mph N/A Thunderstorm Scattered Clouds
3:56 PM 73.9 °F - 32.9 °F 22% 29.73 in 10.0 mi ESE 16.1 mph 23.0 mph N/A Thunderstorm Partly Cloudy
4:08 PM 75.2 °F - 37.4 °F 25% 29.95 in 10.0 mi SE 13.8 mph 19.6 mph N/A   Clear
4:56 PM 81.9 °F - 36.9 °F 20% 29.67 in 10.0 mi SE 15.0 mph 19.6 mph N/A   Clear
5:56 PM 77.0 °F - 34.0 °F 21% 29.67 in 10.0 mi NNW 15.0 mph 19.6 mph N/A   Partly Cloudy
6:56 PM 75.9 °F - 38.8 °F 26% 29.62 in 10.0 mi NNE 11.5 mph - N/A   Clear
7:56 PM 75.9 °F - 41.9 °F 30% 29.58 in 10.0 mi North 4.6 mph - N/A   Clear
8:56 PM 61.9 °F - 46.9 °F 58% 29.60 in 10.0 mi South 5.8 mph - N/A   Clear
9:56 PM 59.9 °F - 43.9 °F 55% 29.59 in 10.0 mi ESE 3.5 mph - N/A   Clear
10:56 PM 61.9 °F - 38.8 °F 43% 29.55 in 10.0 mi Variable 3.5 mph - N/A   Clear
11:56 PM 59.9 °F - 34.9 °F 39% 29.53 in 10.0 mi Variable 3.5 mph - N/A   Clear